User: anonymous   Login
Location: Slanting_Bridge
(35.6330°N, 80.9830°W)
Time: 07:42:07
(UTC-05:00)
Language:

Hamsat - Orbit

View from above orbital plane
View from above orbital plane
View from above satellite
View from above satellite

Ground track
Ground track

The orbit data is extracted from the following two-line orbital elements,

1 28650U 05017B   16044.87843218  .00001638  00000-0  18321-3 0  9996
2 28650  97.5967  31.7716 0022734 314.0070  45.9272 14.88063493583386
Epoch (UTC): 13 February 2016 21:04:56
Eccentricity: 0.0022734
inclination: 97.5967°
perigee height: 588 km
apogee height: 620 km
right ascension of ascending node: 31.7716°
argument of perigee: 314.0070°
revolutions per day: 14.88063493
mean anomaly at epoch: 45.9272°
orbit number at epoch: 58338

The dashed part of the orbit path shows where the satellite is in the earth's shadow,  

DLR